Upstream stations:
Downstream station:
SHEF ID: TCMO2 Little River near Tecumseh, OK
STATION TYPE:
Regulating: Stage = 11.00, Flow = 2244
STAGE RIV-FLOW BAT-LOAD
ft cfs volt
Ccp-Rev Ccp-Rev Ccp-Rev
(US/Central)
03/27 00:00 4.03 17 12.80
03/27 01:00 4.02 16 12.76
03/27 02:00 4.02 16 12.73
03/27 03:00 4.01 16 12.71
03/27 04:00 4.01 16 12.70
03/27 05:00 4.01 16 12.67
03/27 06:00 4.01 16 12.66
03/27 07:00 4.01 16 12.65
03/27 08:00 4.01 16 12.65
03/27 09:00 3.98 14 12.79
03/27 10:00 4.02 16 13.12
03/27 11:00 4.02 16 13.26
03/27 12:00 4.00 15 13.53
03/27 13:00 4.00 15 13.99
03/27 14:00 4.02 16 13.93
03/27 15:00 4.00 15 13.82
03/27 16:00 4.01 16 13.76
03/27 17:00 4.01 16 13.63
03/27 18:00 4.01 16 13.45
03/27 19:00 3.99 15 13.34
03/27 20:00 4.00 15 13.15
03/27 21:00 4.00 15 12.99
03/27 22:00 4.00 15 12.90
03/27 23:00 ---- ---- ----